• In Österreich
  • Länderverzeichnis
  • Für 7 Tage
  • Wassertemperatur
  • Satellitenkarten
  • Wetterkarte
  • News
  • Widgets
  • user-avatar
    Anmelden

    Stündliche Wetter Wolskie

    Heute, 13 November, Dienstag

    Zeit Temperatur Niederschläge Wind Luftdruck Luftfeuchtigkeit
    00:00 +8°C° 0 mm 4 m/S 759 mmHg 84%
    01:00 +8°C° 0 mm 3 m/S 759 mmHg 89%
    02:00 +7°C° 0 mm 4 m/S 759 mmHg 89%
    03:00 +7°C° 0 mm 4 m/S 759 mmHg 89%
    04:00 +7°C° 0 mm 4 m/S 759 mmHg 90%
    05:00 +7°C° 0 mm 4 m/S 759 mmHg 90%
    06:00 +7°C° 0 mm 4 m/S 759 mmHg 91%
    07:00 +8°C° 0 mm 3 m/S 759 mmHg 92%
    08:00 +8°C° 0 mm 4 m/S 759 mmHg 87%
    09:00 +10°C° 0 mm 4 m/S 758 mmHg 83%
    10:00 +11°C° 0 mm 4 m/S 758 mmHg 79%
    11:00 +12°C° 0 mm 4 m/S 758 mmHg 76%
    12:00 +12°C° 0 mm 4 m/S 758 mmHg 73%
    13:00 +13°C° 0 mm 4 m/S 758 mmHg 71%
    14:00 +13°C° 0 mm 3 m/S 757 mmHg 73%
    15:00 +12°C° 0 mm 3 m/S 757 mmHg 75%
    16:00 +12°C° 0 mm 3 m/S 757 mmHg 78%
    17:00 +11°C° 0.4 mm 3 m/S 757 mmHg 81%
    18:00 +11°C° 0.4 mm 4 m/S 757 mmHg 84%
    19:00 +10°C° 0.4 mm 5 m/S 757 mmHg 87%
    20:00 +9°C° 0.7 mm 5 m/S 757 mmHg 87%
    21:00 +9°C° 0.7 mm 5 m/S 758 mmHg 87%
    22:00 +9°C° 0.7 mm 5 m/S 758 mmHg 86%
    23:00 +9°C° 0 mm 5 m/S 758 mmHg 87%

    Morgen, 14 November, Mittwoch

    Zeit Temperatur Niederschläge Wind Luftdruck Luftfeuchtigkeit
    00:00 +8°C° 0 mm 5 m/S 759 mmHg 87%
    01:00 +8°C° 0 mm 5 m/S 759 mmHg 87%
    02:00 +8°C° 0 mm 5 m/S 759 mmHg 87%
    03:00 +8°C° 0 mm 5 m/S 759 mmHg 87%
    04:00 +7°C° 0 mm 6 m/S 759 mmHg 88%
    05:00 +7°C° 0 mm 6 m/S 760 mmHg 86%
    06:00 +7°C° 0 mm 5 m/S 760 mmHg 85%
    07:00 +7°C° 0 mm 5 m/S 760 mmHg 84%
    08:00 +7°C° 0 mm 6 m/S 760 mmHg 83%
    09:00 +8°C° 0 mm 6 m/S 761 mmHg 82%
    10:00 +8°C° 0 mm 6 m/S 761 mmHg 81%
    11:00 +8°C° 0.1 mm 6 m/S 761 mmHg 81%
    12:00 +8°C° 0.1 mm 6 m/S 761 mmHg 80%
    13:00 +8°C° 0.1 mm 6 m/S 761 mmHg 79%
    14:00 +8°C° 0.1 mm 5 m/S 761 mmHg 80%
    15:00 +8°C° 0.1 mm 5 m/S 761 mmHg 80%
    16:00 +8°C° 0.1 mm 5 m/S 762 mmHg 80%
    17:00 +8°C° 0 mm 4 m/S 762 mmHg 83%
    18:00 +8°C° 0 mm 4 m/S 762 mmHg 85%
    19:00 +7°C° 0 mm 4 m/S 762 mmHg 87%
    20:00 +7°C° 0 mm 4 m/S 763 mmHg 89%
    21:00 +6°C° 0 mm 4 m/S 763 mmHg 91%
    22:00 +7°C° 0 mm 3 m/S 763 mmHg 92%
    23:00 +7°C° 0 mm 3 m/S 763 mmHg 93%

    übermorgen, 15 November, Donnerstag

    Zeit Temperatur Niederschläge Wind Luftdruck Luftfeuchtigkeit
    00:00 +5°C° 0 mm 3 m/S 763 mmHg 94%
    01:00 +5°C° 0 mm 3 m/S 764 mmHg 95%
    02:00 +5°C° 0 mm 3 m/S 764 mmHg 95%
    03:00 +5°C° 0 mm 3 m/S 764 mmHg 94%
    04:00 +6°C° 0 mm 2 m/S 764 mmHg 94%
    05:00 +6°C° 0 mm 2 m/S 764 mmHg 93%
    06:00 +6°C° 0 mm 2 m/S 764 mmHg 93%
    07:00 +6°C° 0 mm 2 m/S 765 mmHg 93%
    08:00 +7°C° 0 mm 2 m/S 765 mmHg 89%
    09:00 +7°C° 0 mm 2 m/S 765 mmHg 85%
    10:00 +8°C° 0 mm 2 m/S 765 mmHg 82%
    11:00 +9°C° 0 mm 2 m/S 766 mmHg 77%
    12:00 +9°C° 0 mm 2 m/S 766 mmHg 72%
    13:00 +10°C° 0 mm 2 m/S 766 mmHg 68%
    14:00 +9°C° 0 mm 2 m/S 766 mmHg 71%
    15:00 +8°C° 0 mm 2 m/S 766 mmHg 74%
    16:00 +7°C° 0 mm 2 m/S 766 mmHg 77%
    17:00 +7°C° 0 mm 2 m/S 766 mmHg 80%
    18:00 +6°C° 0 mm 2 m/S 767 mmHg 83%
    19:00 +6°C° 0 mm 2 m/S 767 mmHg 86%
    20:00 +5°C° 0 mm 2 m/S 767 mmHg 87%
    21:00 +5°C° 0 mm 2 m/S 768 mmHg 89%
    22:00 +5°C° 0 mm 2 m/S 768 mmHg 90%
    23:00 +4°C° 0 mm 2 m/S 768 mmHg 91%

    16 November, Freitag

    Zeit Temperatur Niederschläge Wind Luftdruck Luftfeuchtigkeit
    00:00 +4°C° 0 mm 2 m/S 768 mmHg 92%
    01:00 +3°C° 0 mm 2 m/S 768 mmHg 93%
    02:00 +3°C° 0 mm 2 m/S 769 mmHg 93%
    03:00 +3°C° 0 mm 2 m/S 769 mmHg 93%
    04:00 +2°C° 0 mm 2 m/S 769 mmHg 93%
    05:00 +2°C° 0 mm 2 m/S 769 mmHg 93%
    06:00 +2°C° 0 mm 2 m/S 769 mmHg 93%
    07:00 +1°C° 0 mm 2 m/S 770 mmHg 93%
    08:00 +2°C° 0 mm 2 m/S 770 mmHg 88%
    09:00 +2°C° 0 mm 3 m/S 770 mmHg 84%
    10:00 +3°C° 0 mm 3 m/S 770 mmHg 79%
    11:00 +4°C° 0 mm 3 m/S 770 mmHg 76%
    12:00 +5°C° 0 mm 3 m/S 770 mmHg 72%
    13:00 +5°C° 0 mm 3 m/S 770 mmHg 69%
    14:00 +5°C° 0 mm 3 m/S 770 mmHg 72%
    15:00 +5°C° 0 mm 2 m/S 770 mmHg 76%
    16:00 +5°C° 0 mm 2 m/S 770 mmHg 79%
    17:00 +4°C° 0 mm 2 m/S 771 mmHg 82%
    18:00 +4°C° 0 mm 2 m/S 771 mmHg 85%
    19:00 +3°C° 0 mm 2 m/S 771 mmHg 87%
    20:00 +3°C° 0 mm 2 m/S 771 mmHg 89%
    21:00 +3°C° 0 mm 2 m/S 771 mmHg 90%
    22:00 +3°C° 0 mm 2 m/S 771 mmHg 91%
    23:00 +2°C° 0 mm 2 m/S 771 mmHg 91%

    17 November, Samstag

    Zeit Temperatur Niederschläge Wind Luftdruck Luftfeuchtigkeit
    00:00 +2°C° 0 mm 2 m/S 772 mmHg 91%
    01:00 +2°C° 0 mm 2 m/S 772 mmHg 91%
    02:00 +2°C° 0 mm 2 m/S 772 mmHg 92%
    03:00 +1°C° 0 mm 2 m/S 772 mmHg 92%
    04:00 +1°C° 0 mm 2 m/S 772 mmHg 92%
    05:00 +1°C° 0 mm 2 m/S 772 mmHg 91%
    06:00 +1°C° 0 mm 2 m/S 772 mmHg 91%
    07:00 -1°C° 0 mm 2 m/S 772 mmHg 90%
    08:00 +1°C° 0 mm 2 m/S 772 mmHg 84%
    09:00 +2°C° 0 mm 2 m/S 772 mmHg 77%
    10:00 +3°C° 0 mm 2 m/S 772 mmHg 70%
    11:00 +4°C° 0 mm 2 m/S 772 mmHg 65%
    12:00 +5°C° 0 mm 2 m/S 772 mmHg 61%
    13:00 +5°C° 0 mm 2 m/S 771 mmHg 56%
    14:00 +5°C° 0 mm 2 m/S 771 mmHg 59%
    15:00 +5°C° 0 mm 1 m/S 771 mmHg 63%
    16:00 +4°C° 0 mm 1 m/S 771 mmHg 66%
    17:00 +4°C° 0 mm 1 m/S 770 mmHg 68%
    18:00 +4°C° 0 mm 1 m/S 770 mmHg 70%
    19:00 +3°C° 0 mm 1 m/S 770 mmHg 72%
    20:00 +3°C° 0 mm 1 m/S 770 mmHg 73%
    21:00 +3°C° 0 mm 1 m/S 770 mmHg 75%
    22:00 +2°C° 0 mm 0 m/S 770 mmHg 76%
    23:00 +1°C° 0 mm 0 m/S 770 mmHg 77%

    18 November, Sonntag

    Zeit Temperatur Niederschläge Wind Luftdruck Luftfeuchtigkeit
    00:00 +1°C° 0 mm 0 m/S 769 mmHg 77%
    01:00 +1°C° 0 mm 0 m/S 769 mmHg 77%
    02:00 +2°C° 0 mm 1 m/S 768 mmHg 79%
    03:00 +2°C° 0 mm 1 m/S 768 mmHg 80%
    04:00 +1°C° 0 mm 2 m/S 767 mmHg 81%
    05:00 +1°C° 0 mm 2 m/S 767 mmHg 83%
    06:00 +1°C° 0 mm 2 m/S 767 mmHg 84%
    07:00 +1°C° 0 mm 2 m/S 766 mmHg 86%
    08:00 +2°C° 0 mm 2 m/S 766 mmHg 84%
    09:00 +2°C° 0 mm 3 m/S 766 mmHg 82%
    10:00 +3°C° 0 mm 3 m/S 765 mmHg 80%
    11:00 +3°C° 0 mm 3 m/S 765 mmHg 80%
    12:00 +4°C° 0 mm 4 m/S 764 mmHg 80%
    13:00 +4°C° 0 mm 4 m/S 764 mmHg 81%
    14:00 +4°C° 0 mm 4 m/S 764 mmHg 80%
    15:00 +3°C° 0 mm 5 m/S 764 mmHg 80%
    16:00 +2°C° 0 mm 5 m/S 763 mmHg 80%
    17:00 +2°C° 0 mm 5 m/S 764 mmHg 78%
    18:00 +2°C° 0 mm 5 m/S 764 mmHg 76%
    19:00 +2°C° 0 mm 5 m/S 764 mmHg 73%
    20:00 +2°C° 0 mm 5 m/S 764 mmHg 75%
    21:00 +2°C° 0 mm 5 m/S 764 mmHg 77%
    22:00 +2°C° 0 mm 5 m/S 764 mmHg 78%
    23:00 +2°C° 0.1 mm 5 m/S 764 mmHg 77%
    Mehr zeigen